Content
SEND FEEDBACK

Daily
Averages
Monthly
Summary
United States of America

FORT SUPPLY, OKLAHOMA


Home > North America > United States > Oklahoma
Elevation: 2039 feet     Latitude: 36 33N     Longitude: 099 35W

WEATHER
 
SELECT A DAY
Number of Records: 44,235;   Date Range: 9/1/12 - 9/16/14
 
SHARE

PRINT THIS DATA

[ ← Previous Day ]
WEATHER ALMANAC - JANUARY 31, 2013
[ Next Day → ]
[ °C ]   °F
Weather ElementAverageHighLow
Temperature35.5 °F51.8 °F (1:55 pm)23 °F (11:15 pm)
Dewpoint19.8 °F26.6 °F (3:15 pm)14 °F (11:35 pm)
Humidity55.2 %74 % (11:15 pm)30 % (1:55 pm)
Barometer30.16 in30.39 in (8:35 pm)30.00 in (3:55 am)
Wind Speed12.1 mph19.6 mph (2:55 pm)
Wind Gust26.5 mph (2:55 pm)
Weather ElementAverage
Visibility10 mi
Wind DirectionSSE (154.6 °)

Weather ElementTotal
Precipitation---
Heating Degree Days27.6 (Base 65)
Averaged from 69 records on January 31, 2013
WEATHER CONDITIONS BREAKOUT
WIND DIRECTION BREAKOUT
WEATHER BY HOUR - JANUARY 31, 2013
[ °C ]   °F
Local TimeTemperatureDewpointHumidityBarometerVisibilityWind DirectionWind SpeedGust SpeedPrecipitationEventsConditions
12:55 AM30.2 °F19.4 °F64 %30.02 in10.0 miSSW (210°)10.4 mphClear
1:15 AM30.2 °F19.4 °F64 %30.02 in10.0 miSSW (210°)11.5 mphClear
1:35 AM32.0 °F19.4 °F60 %30.02 in10.0 miSSW (210°)11.5 mphClear
1:55 AM32.0 °F19.4 °F60 %30.02 in10.0 miSSW (210°)10.4 mphClear
2:15 AM32.0 °F19.4 °F60 %30.02 in10.0 miSSW (210°)10.4 mphScattered Clouds
2:35 AM32.0 °F19.4 °F60 %30.02 in10.0 miSW (220°)10.4 mphScattered Clouds
2:55 AM32.0 °F19.4 °F60 %30.02 in10.0 miSSW (210°)10.4 mphScattered Clouds
3:15 AM32.0 °F19.4 °F60 %30.02 in10.0 miSSW (210°)10.4 mphScattered Clouds
3:35 AM32.0 °F19.4 °F60 %30.01 in10.0 miSSW (210°)10.4 mphClear
3:55 AM32.0 °F19.4 °F60 %30.00 in10.0 miSSW (210°)10.4 mphClear
4:15 AM30.2 °F19.4 °F64 %30.00 in10.0 miSW (220°)10.4 mphClear
4:35 AM30.2 °F17.6 °F60 %30.00 in10.0 miSW (230°)9.2 mphClear
4:55 AM28.4 °F17.6 °F64 %30.00 in10.0 miWSW (240°)8.1 mphClear
5:15 AM26.6 °F17.6 °F69 %30.00 in10.0 miSW (220°)10.4 mphClear
5:35 AM26.6 °F17.6 °F69 %30.00 in10.0 miSW (220°)10.4 mphClear
5:55 AM26.6 °F17.6 °F69 %30.02 in10.0 miWSW (240°)9.2 mphClear
6:15 AM26.6 °F17.6 °F69 %30.02 in10.0 miSW (230°)12.7 mphClear
6:35 AM28.4 °F17.6 °F64 %30.02 in10.0 miSW (230°)11.5 mphClear
6:55 AM28.4 °F17.6 °F64 %30.01 in10.0 miSW (220°)12.7 mphClear
7:15 AM30.2 °F19.4 °F64 %30.02 in10.0 miSW (220°)12.7 mphClear
7:35 AM30.2 °F19.4 °F64 %30.02 in10.0 miSW (220°)12.7 mphClear
7:55 AM30.2 °F19.4 °F64 %30.03 in10.0 miSW (220°)13.8 mphClear
8:15 AM32.0 °F19.4 °F60 %30.04 in10.0 miSW (230°)12.7 mphClear
8:35 AM32.0 °F21.2 °F64 %30.04 in10.0 miSW (220°)12.7 mphClear
8:55 AM32.0 °F21.2 °F64 %30.07 in10.0 miSW (230°)9.2 mphClear
9:15 AM33.8 °F21.2 °F60 %30.07 in10.0 miSW (230°)11.5 mphClear
9:35 AM37.4 °F21.2 °F52 %30.09 in10.0 miSW (230°)10.4 mphClear
9:55 AM39.2 °F21.2 °F49 %30.10 in10.0 miWest (260°)9.2 mphClear
10:15 AM42.8 °F23.0 °F46 %30.11 in10.0 miWest (270°)6.9 mphClear
10:35 AM46.4 °F19.4 °F34 %30.12 in10.0 miWNW (290°)9.2 mph16.1 mphClear
10:55 AM46.4 °F21.2 °F37 %30.12 in10.0 miNW (310°)10.4 mphClear
11:15 AM46.4 °F21.2 °F37 %30.13 in10.0 miNW (320°)9.2 mphClear
11:35 AM50.0 °F21.2 °F32 %30.14 in10.0 miNW (320°)11.5 mphClear
11:55 AM46.4 °F21.2 °F37 %30.14 in10.0 miNorth (360°)13.8 mphClear
12:15 PM46.4 °F21.2 °F37 %30.15 in10.0 miNNW (330°)13.8 mph17.3 mphClear
12:35 PM48.2 °F21.2 °F34 %30.15 in10.0 miNorth (360°)11.5 mph18.4 mphClear
12:55 PM48.2 °F19.4 °F32 %30.16 in10.0 miNNE (20°)15.0 mphClear
1:15 PM50.0 °F21.2 °F32 %30.15 in10.0 miNNE (20°)17.3 mph23.0 mphClear
1:35 PM50.0 °F21.2 °F32 %30.16 in10.0 miNNE (30°)15.0 mph19.6 mphClear
1:55 PM51.8 °F21.2 °F30 %30.16 in10.0 miNNE (30°)15.0 mph21.9 mphClear
2:15 PM51.8 °F21.2 °F30 %30.16 in10.0 miNE (40°)15.0 mphClear
2:35 PM51.8 °F23.0 °F33 %30.17 in10.0 miNNE (30°)18.4 mph25.3 mphClear
2:55 PM50.0 °F23.0 °F35 %30.17 in10.0 miNNE (30°)19.6 mph26.5 mphClear
3:15 PM48.2 °F26.6 °F43 %30.19 in10.0 miNE (50°)13.8 mphClear
3:55 PM46.4 °F26.6 °F46 %30.23 in10.0 miNE (40°)18.4 mph23.0 mphClear
4:15 PM46.4 °F23.0 °F40 %30.23 in10.0 miNNE (20°)18.4 mphClear
4:35 PM44.6 °F23.0 °F43 %30.26 in10.0 miNNE (30°)12.7 mph17.3 mphClear
4:55 PM44.6 °F21.2 °F39 %30.26 in10.0 miNNE (20°)12.7 mph17.3 mphClear
5:15 PM42.8 °F21.2 °F42 %30.26 in10.0 miNE (40°)13.8 mph19.6 mphClear
5:35 PM41.0 °F21.2 °F45 %30.28 in10.0 miNNE (30°)12.7 mph18.4 mphClear
5:55 PM37.4 °F21.2 °F52 %30.29 in10.0 miNE (40°)13.8 mph19.6 mphClear
6:15 PM35.6 °F21.2 °F56 %30.31 in10.0 miNE (40°)12.7 mphClear
6:35 PM33.8 °F21.2 °F60 %30.33 in10.0 miNE (50°)10.4 mphClear
6:55 PM32.0 °F21.2 °F64 %30.34 in10.0 miENE (70°)16.1 mph19.6 mphClear
7:15 PM32.0 °F19.4 °F60 %30.35 in10.0 miENE (60°)12.7 mph19.6 mphClear
7:35 PM30.2 °F19.4 °F64 %30.36 in10.0 miENE (70°)12.7 mphClear
7:55 PM30.2 °F19.4 °F64 %30.37 in10.0 miEast (80°)10.4 mphClear
8:15 PM28.4 °F19.4 °F69 %30.37 in10.0 miEast (80°)10.4 mphClear
8:35 PM28.4 °F19.4 °F69 %30.39 in10.0 miENE (70°)12.7 mphClear
8:55 PM28.4 °F19.4 °F69 %30.39 in10.0 miEast (90°)6.9 mph10.4 mphClear
9:15 PM26.6 °F17.6 °F69 %30.38 in10.0 miENE (70°)12.7 mphClear
9:35 PM26.6 °F17.6 °F69 %30.38 in10.0 miEast (100°)12.7 mph16.1 mphClear
9:55 PM26.6 °F17.6 °F69 %30.37 in10.0 miEast (90°)11.5 mphClear
10:15 PM26.6 °F17.6 °F69 %30.36 in10.0 miEast (100°)11.5 mphClear
10:35 PM24.8 °F15.8 °F69 %30.36 in10.0 miEast (90°)12.7 mphClear
10:55 PM24.8 °F15.8 °F69 %30.35 in10.0 miEast (80°)12.7 mphClear
11:15 PM23.0 °F15.8 °F74 %30.35 in10.0 miEast (90°)13.8 mphClear
11:35 PM23.0 °F14.0 °F68 %30.35 in10.0 miEast (90°)11.5 mphClear
11:55 PM23.0 °F14.0 °F68 %30.35 in10.0 miEast (100°)9.2 mphClear
Hourly data recorded from KWWR, located miles away from Fort Supply, Oklahoma







STORIES FROM OUR PARTNERS